User: anonymous   Login
Location: Caltech
(34.1382°N, 118.1253°W)
Time: 01:22:10
(UTC-08:00)
Language:

ERBS - Orbit

View from above orbital plane
View from above orbital plane
View from above satellite
View from above satellite

Ground track
Ground track

The orbit data is extracted from the following two-line orbital elements,

1 15354U 84108B   14351.67278241  .00016570  00000-0  53911-3 0  6594
2 15354 057.0135 080.3435 0015863 160.9416 199.2231 15.31959895657701
Epoch (UTC): 17 December 2014 16:08:48
Eccentricity: 0.0015863
inclination: 57.0135°
perigee height: 459 km
apogee height: 481 km
right ascension of ascending node: 80.3435°
argument of perigee: 160.9416°
revolutions per day: 15.31959895
mean anomaly at epoch: 199.2231°
orbit number at epoch: 65770

The dashed part of the orbit path shows where the satellite is in the earth's shadow,  

DLR